EZY82GM GMMX-EGCC

Flight info

Callsign EZY82GM
Flight time 3h 15m
Altitude 36000
Route MABAP UR722 AMSEL DCT VFA DCT SOTEX DCT PINEK DCT KORUL DCT EBOMO DCT RUSIB DCT NOZHU DCT SHIRI DCT TOJAQ DCT EPACE P16 AXCIS
Aircraft A320/M-SDE3FGHIRWY/LB1

Departure

Time 2026-05-03 20:56
Airport Marrakesh Menara Airport (GMMX)

Arrival

Time 2026-05-04 00:11
Airport Manchester Airport (EGCC)
Time Latitude Longitude Altitude Speed Heading
2026-05-03 20:43 31.60051 -8.02325 1550 ft 0 kts 276°
2026-05-03 20:49 31.60050 -8.02315 1550 ft 4 kts 276°
2026-05-03 20:49 31.60047 -8.02283 1550 ft 4 kts 276°
2026-05-03 20:49 31.60044 -8.02256 1550 ft 4 kts 299°
2026-05-03 20:50 31.60026 -8.02239 1550 ft 4 kts 358°
2026-05-03 20:50 31.60007 -8.02240 1550 ft 1 kts
2026-05-03 20:50 31.60005 -8.02241 1550 ft 0 kts
2026-05-03 20:51 31.60005 -8.02240 1550 ft 0 kts
2026-05-03 20:52 31.60025 -8.02238 1550 ft 5 kts
2026-05-03 20:52 31.60075 -8.02229 1550 ft 9 kts
2026-05-03 20:53 31.60156 -8.02218 1550 ft 14 kts
2026-05-03 20:53 31.60244 -8.02208 1550 ft 13 kts
2026-05-03 20:53 31.60330 -8.02198 1550 ft 12 kts
2026-05-03 20:53 31.60391 -8.02175 1550 ft 4 kts 94°
2026-05-03 20:54 31.60389 -8.02144 1550 ft 4 kts 95°
2026-05-03 20:54 31.60420 -8.02038 1550 ft 11 kts
2026-05-03 20:54 31.60516 -8.02027 1550 ft 15 kts
2026-05-03 20:55 31.60555 -8.02099 1550 ft 12 kts 277°
2026-05-03 20:55 31.60575 -8.02327 1550 ft 59 kts 277°
2026-05-03 20:55 31.60642 -8.03067 1550 ft 123 kts 278°
2026-05-03 20:55 31.60729 -8.04288 1588 ft 168 kts 275°
2026-05-03 20:56 31.60795 -8.05654 2219 ft 168 kts 275°
2026-05-03 20:56 31.60853 -8.07025 2977 ft 170 kts 277°
2026-05-03 20:56 31.61024 -8.08490 3334 ft 194 kts 281°
2026-05-03 20:56 31.61213 -8.10174 3412 ft 224 kts 279°
2026-05-03 20:57 31.61409 -8.12095 3778 ft 242 kts 279°
2026-05-03 20:57 31.61597 -8.14064 4695 ft 244 kts 278°
2026-05-03 20:57 31.61907 -8.16016 5671 ft 245 kts 290°
2026-05-03 20:57 31.62720 -8.17773 6560 ft 247 kts 309°
2026-05-03 20:58 31.64001 -8.19116 7390 ft 251 kts 329°
2026-05-03 20:58 31.65655 -8.19822 8116 ft 261 kts 351°
2026-05-03 20:58 31.67565 -8.19928 8549 ft 283 kts 359°
2026-05-03 20:58 31.69529 -8.19938 9559 ft 283 kts 360°
2026-05-03 20:59 31.71511 -8.19937 10426 ft 288 kts 359°
2026-05-03 20:59 31.73603 -8.19926 10677 ft 315 kts 359°
2026-05-03 20:59 31.75829 -8.19915 11341 ft 322 kts 358°
2026-05-03 20:59 31.78108 -8.19900 11893 ft 335 kts 357°
2026-05-03 21:00 31.80476 -8.19894 12467 ft 343 kts 357°
2026-05-03 21:00 31.81283 -8.19891 12752 ft 343 kts 357°
2026-05-03 21:00 31.85274 -8.19868 13932 ft 348 kts 357°
2026-05-03 21:00 31.87701 -8.19854 14625 ft 350 kts 356°
2026-05-03 21:01 31.90147 -8.19840 15238 ft 354 kts 356°
2026-05-03 21:01 31.92616 -8.19825 15849 ft 356 kts 356°
2026-05-03 21:01 31.95102 -8.19810 16434 ft 359 kts 356°
2026-05-03 21:01 31.97605 -8.19795 16999 ft 361 kts 356°
2026-05-03 21:02 32.00127 -8.19780 17551 ft 364 kts 355°
2026-05-03 21:02 32.02663 -8.19765 18084 ft 366 kts 355°
2026-05-03 21:02 32.05219 -8.19750 18590 ft 369 kts 355°
2026-05-03 21:02 32.06959 -8.19740 18917 ft 371 kts 355°
2026-05-03 21:03 32.09549 -8.19725 19392 ft 374 kts 355°
2026-05-03 21:03 32.12165 -8.19698 19840 ft 378 kts 357°
2026-05-03 21:03 32.14806 -8.19396 20306 ft 384 kts
2026-05-03 21:03 32.17462 -8.18983 20768 ft 387 kts
2026-05-03 21:04 32.20139 -8.18557 21201 ft 390 kts
2026-05-03 21:04 32.22835 -8.18124 21648 ft 392 kts
2026-05-03 21:04 32.25550 -8.17684 22057 ft 396 kts
2026-05-03 21:04 32.28289 -8.17239 22479 ft 398 kts
2026-05-03 21:05 32.31047 -8.16789 22868 ft 401 kts
2026-05-03 21:05 32.33820 -8.16334 23299 ft 403 kts
2026-05-03 21:05 32.36607 -8.15876 23676 ft 406 kts
2026-05-03 21:05 32.39414 -8.15415 24038 ft 409 kts
2026-05-03 21:06 32.42237 -8.14950 24415 ft 411 kts
2026-05-03 21:06 32.45076 -8.14482 24750 ft 413 kts
2026-05-03 21:06 32.47934 -8.14010 25100 ft 415 kts
2026-05-03 21:06 32.50801 -8.13536 25441 ft 417 kts
2026-05-03 21:07 32.53683 -8.13060 25755 ft 419 kts
2026-05-03 21:07 32.56578 -8.12581 26071 ft 421 kts
2026-05-03 21:07 32.59491 -8.12099 26367 ft 424 kts
2026-05-03 21:07 32.62415 -8.11614 26681 ft 425 kts
2026-05-03 21:08 32.65348 -8.11127 26973 ft 427 kts
2026-05-03 21:08 32.68294 -8.10639 27271 ft 428 kts
2026-05-03 21:08 32.71291 -8.10141 27524 ft 431 kts
2026-05-03 21:08 32.74267 -8.09650 27799 ft 432 kts
2026-05-03 21:09 32.77248 -8.09159 28056 ft 434 kts
2026-05-03 21:09 32.80200 -8.08673 28310 ft 436 kts
2026-05-03 21:09 32.83210 -8.08177 28583 ft 437 kts
2026-05-03 21:09 32.86217 -8.07681 28905 ft 436 kts
2026-05-03 21:10 32.89229 -8.07162 29144 ft 440 kts
2026-05-03 21:10 32.92237 -8.06304 29341 ft 448 kts 11°
2026-05-03 21:10 32.95168 -8.04971 29638 ft 454 kts 19°
2026-05-03 21:10 32.97997 -8.03237 29805 ft 460 kts 23°
2026-05-03 21:11 33.00821 -8.01422 30020 ft 462 kts 23°
2026-05-03 21:11 33.03645 -7.99596 30266 ft 463 kts 23°
2026-05-03 21:11 33.06484 -7.97757 30444 ft 465 kts 24°
2026-05-03 21:11 33.09325 -7.95912 30662 ft 466 kts 24°
2026-05-03 21:12 33.12177 -7.94054 30874 ft 468 kts 23°
2026-05-03 21:12 33.15038 -7.92189 31082 ft 469 kts 23°
2026-05-03 21:12 33.17905 -7.90317 31292 ft 470 kts 23°
2026-05-03 21:12 33.20780 -7.88437 31465 ft 473 kts 23°
2026-05-03 21:13 33.23669 -7.86545 31663 ft 474 kts 23°
2026-05-03 21:13 33.26564 -7.84646 31855 ft 476 kts 23°
2026-05-03 21:13 33.29469 -7.82738 32059 ft 477 kts 23°
2026-05-03 21:13 33.32375 -7.80827 32271 ft 478 kts 23°
2026-05-03 21:14 33.35291 -7.78907 32461 ft 479 kts 23°
2026-05-03 21:14 33.38215 -7.76980 32668 ft 480 kts 23°
2026-05-03 21:14 33.41148 -7.75045 32822 ft 482 kts 23°
2026-05-03 21:14 33.44089 -7.73104 33030 ft 483 kts 23°
2026-05-03 21:15 33.47036 -7.71157 33228 ft 484 kts 23°
2026-05-03 21:15 33.50089 -7.69521 33402 ft 476 kts 12°
2026-05-03 21:15 33.53273 -7.68635 33613 ft 465 kts 360°
2026-05-03 21:15 33.56468 -7.68504 33772 ft 455 kts 349°
2026-05-03 21:16 33.59627 -7.68726 33978 ft 455 kts 348°
2026-05-03 21:16 33.62795 -7.68969 34150 ft 457 kts 348°
2026-05-03 21:16 33.65972 -7.69222 34341 ft 458 kts 348°
2026-05-03 21:16 33.69154 -7.69480 34522 ft 459 kts 348°
2026-05-03 21:17 33.72385 -7.69746 34734 ft 460 kts 347°
2026-05-03 21:17 33.74497 -7.69922 34911 ft 459 kts 347°
2026-05-03 21:17 33.78753 -7.70281 35275 ft 457 kts 347°
2026-05-03 21:17 33.81915 -7.70551 35547 ft 456 kts 347°
2026-05-03 21:18 33.85081 -7.70824 35755 ft 456 kts 347°
2026-05-03 21:18 33.88238 -7.71100 36025 ft 453 kts 347°
2026-05-03 21:18 33.91385 -7.71375 36170 ft 456 kts 347°
2026-05-03 21:18 33.94551 -7.71657 36100 ft 456 kts 347°
2026-05-03 21:19 34.00858 -7.72218 36076 ft 454 kts 347°
2026-05-03 21:19 34.07166 -7.72787 36076 ft 455 kts 347°
2026-05-03 21:20 34.13481 -7.73359 36078 ft 455 kts 347°
2026-05-03 21:20 34.19795 -7.73912 36077 ft 456 kts 347°
2026-05-03 21:21 34.26146 -7.74353 36076 ft 458 kts 348°
2026-05-03 21:21 34.32506 -7.74789 36075 ft 457 kts 348°
2026-05-03 21:22 34.38862 -7.75226 36073 ft 458 kts 348°
2026-05-03 21:22 34.45218 -7.75664 36073 ft 458 kts 348°
2026-05-03 21:23 34.51580 -7.76104 36072 ft 458 kts 347°
2026-05-03 21:23 34.57940 -7.76545 36071 ft 458 kts 347°
2026-05-03 21:24 34.64300 -7.76986 36070 ft 458 kts 347°
2026-05-03 21:24 34.70665 -7.77429 36069 ft 458 kts 347°
2026-05-03 21:25 34.77023 -7.77907 36068 ft 458 kts 347°
2026-05-03 21:25 34.83431 -7.78442 36067 ft 459 kts 346°
2026-05-03 21:26 34.89795 -7.78975 36066 ft 458 kts 346°
2026-05-03 21:26 34.96162 -7.79507 36054 ft 459 kts 346°
2026-05-03 21:27 35.02530 -7.80040 36052 ft 459 kts 346°
2026-05-03 21:27 35.08902 -7.80574 36052 ft 459 kts 346°
2026-05-03 21:28 35.15272 -7.81108 36052 ft 459 kts 346°
2026-05-03 21:28 35.21642 -7.81644 36051 ft 459 kts 346°
2026-05-03 21:29 35.28036 -7.82183 36052 ft 461 kts 346°
2026-05-03 21:29 35.34430 -7.82720 36052 ft 460 kts 346°
2026-05-03 21:30 35.40822 -7.83261 36052 ft 460 kts 346°
2026-05-03 21:30 35.47209 -7.83831 36052 ft 460 kts 345°
2026-05-03 21:31 35.53597 -7.84408 36052 ft 460 kts 345°
2026-05-03 21:31 35.59980 -7.84985 36052 ft 460 kts 345°
2026-05-03 21:32 35.66359 -7.85562 36052 ft 460 kts 345°
2026-05-03 21:32 35.72737 -7.86138 36052 ft 460 kts 345°
2026-05-03 21:33 35.79121 -7.86717 36052 ft 460 kts 345°
2026-05-03 21:33 35.85498 -7.87295 36052 ft 460 kts 345°
2026-05-03 21:34 35.91920 -7.87878 36052 ft 460 kts 345°
2026-05-03 21:34 35.98301 -7.88452 36052 ft 460 kts 345°
2026-05-03 21:35 36.04690 -7.89007 36052 ft 460 kts 345°
2026-05-03 21:35 36.11076 -7.89562 36052 ft 460 kts 345°
2026-05-03 21:36 36.16383 -7.90023 36052 ft 460 kts 345°
2026-05-03 21:36 36.22769 -7.90578 36052 ft 460 kts 345°
2026-05-03 21:37 36.29141 -7.91209 36055 ft 458 kts 344°
2026-05-03 21:37 36.35489 -7.91929 36055 ft 458 kts 344°
2026-05-03 21:38 36.41838 -7.92651 36054 ft 458 kts 344°
2026-05-03 21:38 36.48230 -7.93380 36054 ft 458 kts 344°
2026-05-03 21:39 36.54553 -7.94104 36054 ft 460 kts 344°
2026-05-03 21:39 36.60968 -7.94839 36053 ft 460 kts 344°
2026-05-03 21:40 36.67299 -7.95566 36053 ft 460 kts 344°
2026-05-03 21:40 36.73711 -7.96304 36052 ft 460 kts 344°
2026-05-03 21:41 36.80081 -7.97039 36052 ft 460 kts 344°
2026-05-03 21:41 36.86448 -7.97775 36052 ft 460 kts 344°
2026-05-03 21:42 36.92815 -7.98513 36052 ft 459 kts 344°
2026-05-03 21:42 36.99181 -7.99251 36052 ft 460 kts 344°
2026-05-03 21:43 37.05548 -7.99991 36052 ft 459 kts 345°
2026-05-03 21:43 37.11915 -8.00735 36052 ft 459 kts 345°
2026-05-03 21:44 37.18283 -8.01477 36052 ft 459 kts 345°
2026-05-03 21:44 37.24647 -8.02219 36052 ft 459 kts 345°
2026-05-03 21:45 37.31012 -8.02964 36052 ft 459 kts 345°
2026-05-03 21:45 37.37375 -8.03710 36052 ft 459 kts 345°
2026-05-03 21:46 37.43782 -8.04462 36052 ft 459 kts 345°
2026-05-03 21:46 37.50146 -8.05211 36052 ft 459 kts 345°
2026-05-03 21:47 37.56509 -8.05960 36052 ft 460 kts 345°
2026-05-03 21:47 37.62894 -8.06716 36052 ft 461 kts 345°
2026-05-03 21:48 37.69274 -8.07469 36052 ft 460 kts 345°
2026-05-03 21:48 37.75657 -8.08225 36052 ft 460 kts 345°
2026-05-03 21:49 37.82038 -8.08982 36052 ft 460 kts 345°
2026-05-03 21:49 37.88419 -8.09741 36052 ft 460 kts 345°
2026-05-03 21:50 37.94800 -8.10501 36052 ft 460 kts 345°
2026-05-03 21:50 38.01179 -8.11262 36052 ft 460 kts 345°
2026-05-03 21:51 38.07559 -8.12025 36051 ft 460 kts 345°
2026-05-03 21:51 38.13939 -8.12789 36050 ft 460 kts 345°
2026-05-03 21:52 38.20318 -8.13554 36050 ft 460 kts 345°
2026-05-03 21:52 38.26699 -8.14321 36049 ft 460 kts 345°
2026-05-03 21:53 38.33076 -8.15088 36048 ft 460 kts 345°
2026-05-03 21:53 38.39456 -8.15858 36046 ft 460 kts 345°
2026-05-03 21:54 38.45836 -8.16629 36045 ft 460 kts 345°
2026-05-03 21:54 38.52213 -8.17401 36044 ft 460 kts 345°
2026-05-03 21:55 38.58593 -8.18174 36044 ft 460 kts 345°
2026-05-03 21:55 38.65009 -8.18954 36043 ft 460 kts 346°
2026-05-03 21:56 38.71390 -8.19729 36042 ft 460 kts 346°
2026-05-03 21:56 38.77765 -8.20507 36071 ft 460 kts 346°
2026-05-03 21:57 38.84142 -8.21286 36075 ft 460 kts 346°
2026-05-03 21:57 38.90537 -8.22069 36084 ft 462 kts 346°
2026-05-03 21:58 38.96928 -8.22851 36097 ft 462 kts 346°
2026-05-03 21:58 39.03320 -8.23636 36098 ft 461 kts 346°
2026-05-03 21:59 39.09703 -8.24420 36097 ft 461 kts 346°
2026-05-03 21:59 39.16080 -8.25207 36095 ft 461 kts 346°
2026-05-03 22:00 39.22468 -8.25996 36093 ft 462 kts 346°
2026-05-03 22:00 39.28874 -8.26788 36089 ft 462 kts 346°
2026-05-03 22:01 39.35272 -8.27580 36086 ft 462 kts 346°
2026-05-03 22:01 39.41672 -8.28375 36082 ft 462 kts 346°
2026-05-03 22:02 39.48072 -8.29170 36080 ft 463 kts 346°
2026-05-03 22:02 39.54462 -8.29959 36072 ft 460 kts 347°
2026-05-03 22:03 39.60817 -8.30753 36077 ft 457 kts 346°
2026-05-03 22:03 39.67200 -8.31558 36065 ft 463 kts 346°
2026-05-03 22:04 39.73659 -8.32368 36060 ft 464 kts 346°
2026-05-03 22:04 39.80090 -8.33175 36056 ft 464 kts 347°
2026-05-03 22:05 39.86516 -8.33983 36049 ft 464 kts 347°
2026-05-03 22:05 39.92935 -8.34792 36044 ft 464 kts 347°
2026-05-03 22:06 39.99363 -8.35603 36044 ft 464 kts 347°
2026-05-03 22:06 40.05797 -8.36419 36043 ft 465 kts 347°
2026-05-03 22:07 40.12234 -8.37233 36041 ft 463 kts 347°
2026-05-03 22:07 40.18647 -8.38048 36042 ft 463 kts 347°
2026-05-03 22:08 40.25045 -8.38859 36031 ft 461 kts 347°
2026-05-03 22:08 40.30357 -8.39534 36038 ft 461 kts 347°
2026-05-03 22:09 40.36717 -8.40346 36020 ft 457 kts 347°
2026-05-03 22:10 40.46296 -8.41578 36008 ft 459 kts 347°
2026-05-03 22:10 40.52674 -8.42394 36035 ft 461 kts 347°
2026-05-03 22:11 40.59091 -8.43221 36028 ft 463 kts 347°
2026-05-03 22:11 40.65495 -8.44044 36026 ft 463 kts 347°
2026-05-03 22:12 40.71914 -8.44872 36025 ft 463 kts 347°
2026-05-03 22:12 40.78320 -8.45699 36024 ft 463 kts 348°
2026-05-03 22:13 40.84729 -8.46529 36023 ft 463 kts 348°
2026-05-03 22:13 40.91136 -8.47361 36023 ft 462 kts 348°
2026-05-03 22:14 40.97536 -8.48193 36026 ft 462 kts 348°
2026-05-03 22:14 41.03938 -8.49027 36030 ft 462 kts 348°
2026-05-03 22:15 41.10338 -8.49862 36037 ft 462 kts 348°
2026-05-03 22:15 41.16739 -8.50700 36043 ft 463 kts 348°
2026-05-03 22:16 41.23152 -8.51540 36048 ft 463 kts 348°
2026-05-03 22:16 41.29560 -8.52381 36051 ft 463 kts 348°
2026-05-03 22:17 41.35968 -8.53224 36051 ft 462 kts 348°
2026-05-03 22:17 41.42374 -8.54068 36051 ft 463 kts 348°
2026-05-03 22:18 41.48784 -8.54914 36051 ft 462 kts 348°
2026-05-03 22:18 41.55186 -8.55762 36051 ft 462 kts 348°
2026-05-03 22:19 41.61626 -8.56616 36051 ft 462 kts 348°
2026-05-03 22:19 41.68033 -8.57467 36051 ft 462 kts 348°
2026-05-03 22:20 41.74448 -8.58321 36051 ft 463 kts 348°
2026-05-03 22:20 41.80869 -8.59116 36049 ft 466 kts 353°
2026-05-03 22:21 41.87365 -8.58015 36051 ft 479 kts 12°
2026-05-03 22:21 41.93681 -8.55060 36052 ft 481 kts 16°
2026-05-03 22:22 41.99936 -8.51811 36051 ft 482 kts 17°
2026-05-03 22:22 42.06159 -8.48501 36051 ft 480 kts 18°
2026-05-03 22:23 42.12375 -8.45176 36052 ft 481 kts 18°
2026-05-03 22:23 42.18591 -8.41840 36052 ft 481 kts 18°
2026-05-03 22:24 42.24802 -8.38497 36052 ft 481 kts 18°
2026-05-03 22:24 42.31017 -8.35141 36051 ft 481 kts 18°
2026-05-03 22:25 42.37228 -8.31779 36051 ft 481 kts 18°
2026-05-03 22:25 42.43442 -8.28407 36051 ft 480 kts 18°
2026-05-03 22:26 42.49640 -8.25035 36051 ft 480 kts 18°
2026-05-03 22:26 42.55836 -8.21656 36051 ft 480 kts 18°
2026-05-03 22:27 42.62027 -8.18273 36051 ft 480 kts 18°
2026-05-03 22:27 42.68254 -8.14863 36050 ft 479 kts 18°
2026-05-03 22:28 42.74432 -8.11472 36050 ft 478 kts 19°
2026-05-03 22:28 42.80597 -8.08081 36050 ft 477 kts 19°
2026-05-03 22:29 42.86752 -8.04688 36050 ft 477 kts 19°
2026-05-03 22:29 42.92896 -8.01294 36050 ft 477 kts 19°
2026-05-03 22:30 42.99053 -7.97886 36050 ft 480 kts 19°
2026-05-03 22:30 43.05246 -7.94448 36050 ft 480 kts 19°
2026-05-03 22:31 43.11426 -7.91011 36049 ft 480 kts 19°
2026-05-03 22:31 43.17598 -7.87571 36049 ft 479 kts 19°
2026-05-03 22:32 43.23764 -7.84127 36049 ft 479 kts 19°
2026-05-03 22:32 43.29929 -7.80675 36048 ft 478 kts 19°
2026-05-03 22:33 43.36087 -7.77221 36046 ft 478 kts 19°
2026-05-03 22:33 43.42235 -7.73764 36045 ft 477 kts 19°
2026-05-03 22:34 43.48375 -7.70303 36044 ft 476 kts 20°
2026-05-03 22:34 43.54506 -7.66840 36043 ft 476 kts 20°
2026-05-03 22:35 43.60635 -7.63371 36044 ft 476 kts 20°
2026-05-03 22:35 43.66804 -7.59872 36043 ft 475 kts 20°
2026-05-03 22:36 43.72921 -7.56394 36042 ft 476 kts 20°
2026-05-03 22:36 43.79042 -7.52905 36041 ft 476 kts 20°
2026-05-03 22:37 43.85165 -7.49408 36040 ft 476 kts 20°
2026-05-03 22:37 43.91286 -7.45904 36039 ft 476 kts 20°
2026-05-03 22:38 43.97413 -7.42390 36037 ft 477 kts 20°
2026-05-03 22:38 44.03542 -7.38868 36036 ft 474 kts 20°
2026-05-03 22:39 44.09626 -7.35361 36035 ft 474 kts 20°
2026-05-03 22:39 44.15722 -7.31840 36034 ft 475 kts 20°
2026-05-03 22:40 44.21825 -7.28306 36033 ft 474 kts 20°
2026-05-03 22:40 44.27921 -7.24770 36033 ft 475 kts 20°
2026-05-03 22:41 44.34019 -7.21224 36032 ft 475 kts 20°
2026-05-03 22:41 44.40123 -7.17666 36031 ft 476 kts 20°
2026-05-03 22:42 44.46239 -7.14093 36030 ft 476 kts 20°
2026-05-03 22:42 44.52347 -7.10518 36030 ft 476 kts 20°
2026-05-03 22:43 44.57465 -7.07515 36029 ft 475 kts 21°
2026-05-03 22:43 44.63559 -7.03932 36029 ft 475 kts 21°
2026-05-03 22:44 44.69669 -7.00332 36028 ft 476 kts 21°
2026-05-03 22:44 44.75772 -6.96727 36027 ft 476 kts 21°
2026-05-03 22:45 44.81870 -6.93117 36027 ft 475 kts 21°
2026-05-03 22:45 44.87713 -6.88761 36027 ft 477 kts 29°
2026-05-03 22:46 44.93447 -6.84048 36025 ft 477 kts 29°
2026-05-03 22:46 44.99176 -6.79329 36025 ft 477 kts 29°
2026-05-03 22:47 45.04906 -6.74603 36024 ft 477 kts 29°
2026-05-03 22:47 45.10638 -6.69865 36023 ft 477 kts 29°
2026-05-03 22:48 45.16364 -6.65121 36022 ft 476 kts 29°
2026-05-03 22:48 45.22078 -6.60375 36021 ft 476 kts 29°
2026-05-03 22:49 45.27793 -6.55618 36020 ft 476 kts 29°
2026-05-03 22:49 45.33507 -6.50848 36019 ft 476 kts 29°
2026-05-03 22:50 45.39223 -6.46066 36018 ft 477 kts 30°
2026-05-03 22:50 45.44976 -6.41241 36017 ft 477 kts 30°
2026-05-03 22:51 45.50677 -6.36448 36016 ft 476 kts 30°
2026-05-03 22:51 45.56375 -6.31645 36015 ft 476 kts 30°
2026-05-03 22:52 45.62074 -6.26830 36013 ft 476 kts 30°
2026-05-03 22:52 45.67771 -6.22006 36011 ft 476 kts 30°
2026-05-03 22:53 45.73465 -6.17172 36010 ft 476 kts 30°
2026-05-03 22:53 45.79157 -6.12327 36008 ft 476 kts 30°
2026-05-03 22:54 45.84845 -6.07476 36007 ft 476 kts 30°
2026-05-03 22:54 45.90527 -6.02616 36006 ft 476 kts 30°
2026-05-03 22:55 45.96209 -5.97745 36000 ft 476 kts 30°
2026-05-03 22:55 46.01889 -5.92864 35998 ft 476 kts 30°
2026-05-03 22:56 46.07567 -5.87973 35997 ft 476 kts 30°
2026-05-03 22:56 46.13243 -5.83072 35995 ft 476 kts 30°
2026-05-03 22:57 46.18952 -5.78129 35994 ft 476 kts 30°
2026-05-03 22:57 46.24590 -5.73237 35993 ft 476 kts 30°
2026-05-03 22:58 46.30299 -5.68270 35992 ft 476 kts 30°
2026-05-03 22:58 46.35962 -5.63332 35990 ft 475 kts 30°
2026-05-03 22:59 46.41628 -5.58379 35989 ft 476 kts 31°
2026-05-03 22:59 46.47302 -5.53406 35988 ft 477 kts 31°
2026-05-03 23:00 46.52973 -5.48424 35986 ft 476 kts 31°
2026-05-03 23:00 46.58642 -5.43431 35985 ft 476 kts 31°
2026-05-03 23:01 46.64321 -5.38417 35976 ft 476 kts 31°
2026-05-03 23:01 46.69984 -5.33405 35982 ft 476 kts 31°
2026-05-03 23:02 46.75646 -5.28380 35981 ft 476 kts 31°
2026-05-03 23:02 46.81309 -5.23343 35978 ft 478 kts 31°
2026-05-03 23:03 46.86976 -5.18289 35972 ft 477 kts 31°
2026-05-03 23:03 46.92637 -5.13228 35971 ft 476 kts 31°
2026-05-03 23:04 46.98287 -5.08164 35969 ft 476 kts 31°
2026-05-03 23:04 47.03941 -5.03084 35969 ft 476 kts 31°
2026-05-03 23:05 47.09594 -4.97992 35968 ft 478 kts 31°
2026-05-03 23:05 47.15253 -4.92881 35967 ft 477 kts 31°
2026-05-03 23:06 47.20906 -4.87763 35967 ft 477 kts 31°
2026-05-03 23:06 47.26558 -4.82633 35964 ft 477 kts 31°
2026-05-03 23:07 47.32208 -4.77491 35963 ft 477 kts 32°
2026-05-03 23:07 47.37856 -4.72338 35963 ft 477 kts 32°
2026-05-03 23:08 47.43538 -4.67141 35963 ft 477 kts 32°
2026-05-03 23:08 47.49178 -4.61969 35963 ft 477 kts 32°
2026-05-03 23:09 47.54819 -4.56783 35963 ft 477 kts 32°
2026-05-03 23:09 47.60462 -4.51581 35963 ft 479 kts 32°
2026-05-03 23:10 47.66110 -4.46362 35963 ft 478 kts 32°
2026-05-03 23:10 47.71754 -4.41133 35963 ft 478 kts 32°
2026-05-03 23:11 47.77393 -4.35895 35964 ft 478 kts 32°
2026-05-03 23:11 47.83076 -4.30783 35960 ft 478 kts 25°
2026-05-03 23:12 47.89365 -4.27621 35965 ft 477 kts 15°
2026-05-03 23:12 47.95742 -4.24856 35963 ft 477 kts 15°
2026-05-03 23:13 48.02121 -4.22114 35963 ft 477 kts 15°
2026-05-03 23:13 48.08506 -4.19380 35963 ft 477 kts 15°
2026-05-03 23:14 48.14893 -4.16652 35963 ft 477 kts 15°
2026-05-03 23:14 48.21276 -4.13930 35962 ft 476 kts 15°
2026-05-03 23:15 48.27650 -4.11212 35959 ft 476 kts 15°
2026-05-03 23:15 48.32991 -4.08933 35959 ft 476 kts 15°
2026-05-03 23:16 48.39367 -4.06211 35958 ft 476 kts 15°
2026-05-03 23:16 48.45738 -4.03487 35958 ft 475 kts 15°
2026-05-03 23:17 48.52100 -4.00763 35957 ft 476 kts 15°
2026-05-03 23:17 48.58475 -3.98028 35951 ft 478 kts 15°
2026-05-03 23:18 48.64870 -3.95278 35943 ft 477 kts 15°
2026-05-03 23:18 48.71257 -3.92526 35942 ft 477 kts 15°
2026-05-03 23:19 48.77644 -3.89768 35943 ft 477 kts 15°
2026-05-03 23:19 48.84021 -3.87008 35942 ft 476 kts 15°
2026-05-03 23:20 48.90438 -3.84223 35944 ft 477 kts 15°
2026-05-03 23:20 48.96813 -3.81450 35945 ft 476 kts 14°
2026-05-03 23:21 49.03351 -3.80197 35953 ft 473 kts
2026-05-03 23:21 49.09925 -3.79769 35952 ft 473 kts
2026-05-03 23:22 49.19789 -3.79179 35952 ft 472 kts
2026-05-03 23:22 49.26354 -3.78803 35952 ft 472 kts
2026-05-03 23:23 49.32923 -3.78438 35952 ft 473 kts
2026-05-03 23:23 49.39491 -3.78079 35952 ft 471 kts
2026-05-03 23:24 49.46049 -3.77726 35948 ft 472 kts
2026-05-03 23:24 49.52613 -3.77377 35946 ft 471 kts
2026-05-03 23:25 49.59164 -3.77030 35944 ft 471 kts
2026-05-03 23:25 49.65714 -3.76686 35943 ft 471 kts
2026-05-03 23:26 49.72253 -3.76183 35942 ft 470 kts
2026-05-03 23:26 49.78786 -3.75408 35942 ft 471 kts
2026-05-03 23:27 49.85363 -3.74622 35949 ft 471 kts
2026-05-03 23:27 49.91893 -3.73843 35950 ft 471 kts
2026-05-03 23:28 49.98426 -3.73064 35951 ft 471 kts
2026-05-03 23:28 50.04955 -3.72268 35952 ft 470 kts
2026-05-03 23:29 50.11458 -3.71208 35953 ft 470 kts
2026-05-03 23:29 50.17971 -3.70122 35952 ft 470 kts
2026-05-03 23:30 50.24480 -3.69034 35953 ft 470 kts
2026-05-03 23:30 50.30985 -3.67944 35954 ft 470 kts
2026-05-03 23:31 50.37490 -3.66852 35956 ft 470 kts
2026-05-03 23:31 50.43991 -3.65757 35957 ft 470 kts
2026-05-03 23:32 50.50491 -3.64661 35959 ft 470 kts
2026-05-03 23:32 50.56993 -3.63562 35960 ft 470 kts
2026-05-03 23:33 50.63495 -3.62459 35961 ft 470 kts
2026-05-03 23:33 50.69997 -3.61354 35962 ft 470 kts
2026-05-03 23:34 50.76496 -3.60246 35962 ft 469 kts
2026-05-03 23:34 50.82983 -3.59137 35961 ft 469 kts
2026-05-03 23:35 50.89469 -3.58026 35959 ft 469 kts
2026-05-03 23:35 50.95955 -3.56911 35956 ft 469 kts
2026-05-03 23:36 51.02442 -3.55793 35951 ft 469 kts
2026-05-03 23:36 51.08926 -3.54673 35947 ft 469 kts
2026-05-03 23:37 51.15397 -3.53551 35942 ft 467 kts
2026-05-03 23:37 51.21864 -3.52428 35939 ft 468 kts
2026-05-03 23:38 51.28328 -3.51201 35936 ft 468 kts
2026-05-03 23:38 51.34793 -3.49913 35935 ft 468 kts
2026-05-03 23:39 51.41238 -3.48630 35934 ft 466 kts
2026-05-03 23:39 51.47687 -3.47347 35933 ft 467 kts
2026-05-03 23:40 51.54131 -3.46065 35932 ft 467 kts
2026-05-03 23:40 51.60617 -3.44773 35931 ft 466 kts
2026-05-03 23:41 51.67049 -3.43490 35929 ft 466 kts
2026-05-03 23:41 51.73482 -3.42205 35928 ft 466 kts
2026-05-03 23:42 51.79914 -3.40918 35927 ft 466 kts
2026-05-03 23:42 51.86349 -3.39627 35937 ft 466 kts
2026-05-03 23:43 51.92780 -3.38361 35938 ft 466 kts
2026-05-03 23:43 51.96017 -3.38027 35507 ft 466 kts
2026-05-03 23:43 51.99289 -3.37780 34403 ft 476 kts
2026-05-03 23:44 52.02632 -3.37541 33363 ft 484 kts
2026-05-03 23:44 52.05986 -3.37302 32782 ft 479 kts
2026-05-03 23:44 52.09284 -3.37067 31937 ft 471 kts
2026-05-03 23:44 52.12541 -3.36835 31039 ft 465 kts
2026-05-03 23:45 52.15743 -3.36606 30127 ft 458 kts
2026-05-03 23:45 52.18898 -3.36379 29274 ft 450 kts
2026-05-03 23:45 52.22001 -3.36155 28433 ft 442 kts
2026-05-03 23:45 52.25061 -3.35932 27626 ft 438 kts
2026-05-03 23:46 52.28073 -3.35712 27016 ft 427 kts
2026-05-03 23:46 52.31007 -3.35499 26512 ft 416 kts
2026-05-03 23:46 52.33858 -3.35290 26060 ft 404 kts
2026-05-03 23:46 52.36632 -3.35085 25626 ft 395 kts
2026-05-03 23:47 52.39369 -3.34875 25179 ft 390 kts
2026-05-03 23:47 52.42043 -3.34679 24772 ft 379 kts
2026-05-03 23:47 52.44643 -3.34491 24358 ft 370 kts
2026-05-03 23:47 52.47188 -3.34305 23950 ft 363 kts
2026-05-03 23:48 52.49706 -3.34119 23554 ft 361 kts
2026-05-03 23:48 52.52215 -3.33934 23163 ft 360 kts
2026-05-03 23:48 52.53904 -3.33809 22900 ft 359 kts
2026-05-03 23:48 52.56393 -3.33625 22513 ft 357 kts
2026-05-03 23:49 52.58872 -3.33442 22097 ft 356 kts
2026-05-03 23:49 52.61335 -3.33260 21704 ft 353 kts
2026-05-03 23:49 52.63775 -3.32957 21327 ft 351 kts
2026-05-03 23:49 52.66157 -3.32162 20959 ft 349 kts 16°
2026-05-03 23:50 52.68417 -3.30741 20595 ft 347 kts 26°
2026-05-03 23:50 52.70567 -3.28961 20225 ft 345 kts 28°
2026-05-03 23:50 52.72765 -3.27224 19703 ft 359 kts 22°
2026-05-03 23:50 52.75116 -3.25809 19228 ft 355 kts 20°
2026-05-03 23:51 52.77440 -3.24447 19152 ft 357 kts 20°
2026-05-03 23:51 52.79785 -3.23065 19035 ft 358 kts 20°
2026-05-03 23:51 52.82131 -3.21675 18735 ft 357 kts 20°
2026-05-03 23:51 52.84457 -3.20290 18414 ft 355 kts 20°
2026-05-03 23:52 52.86775 -3.18907 18082 ft 353 kts 20°
2026-05-03 23:52 52.89081 -3.17546 17750 ft 351 kts 18°
2026-05-03 23:52 52.91443 -3.16543 17420 ft 349 kts 11°
2026-05-03 23:52 52.93850 -3.16083 17094 ft 348 kts
2026-05-03 23:53 52.96258 -3.16016 16767 ft 345 kts
2026-05-03 23:53 52.98652 -3.16005 16439 ft 344 kts 360°
2026-05-03 23:53 53.00004 -3.16006 16256 ft 343 kts 360°
2026-05-03 23:53 53.02383 -3.16016 15948 ft 341 kts 359°
2026-05-03 23:54 53.04749 -3.16033 15685 ft 339 kts 359°
2026-05-03 23:54 53.07099 -3.16005 15475 ft 337 kts
2026-05-03 23:54 53.09442 -3.15828 15371 ft 337 kts
2026-05-03 23:54 53.11789 -3.15638 15041 ft 339 kts
2026-05-03 23:55 53.14159 -3.15447 14354 ft 339 kts
2026-05-03 23:55 53.16481 -3.15261 14011 ft 330 kts
2026-05-03 23:55 53.18766 -3.15079 13708 ft 327 kts
2026-05-03 23:55 53.21034 -3.14898 13409 ft 326 kts
2026-05-03 23:56 53.23294 -3.14717 13108 ft 324 kts
2026-05-03 23:56 53.25545 -3.14538 12810 ft 323 kts
2026-05-03 23:56 53.27811 -3.14357 12511 ft 321 kts
2026-05-03 23:56 53.30037 -3.14180 12216 ft 320 kts
2026-05-03 23:57 53.32253 -3.14003 11930 ft 318 kts
2026-05-03 23:57 53.34439 -3.13828 11755 ft 307 kts
2026-05-03 23:57 53.36526 -3.13637 11521 ft 297 kts
2026-05-03 23:57 53.38475 -3.12637 11087 ft 292 kts 28°
2026-05-03 23:58 53.40018 -3.10487 10591 ft 289 kts 51°
2026-05-03 23:58 53.41108 -3.07689 10322 ft 286 kts 58°
2026-05-03 23:58 53.42138 -3.04832 10058 ft 286 kts 59°
2026-05-03 23:58 53.43152 -3.01972 9785 ft 284 kts 59°
2026-05-03 23:59 53.44153 -2.99126 9529 ft 282 kts 59°
2026-05-03 23:59 53.45145 -2.96290 9279 ft 282 kts 59°
2026-05-03 23:59 53.46130 -2.93461 9007 ft 280 kts 59°
2026-05-03 23:59 53.47103 -2.90658 8745 ft 273 kts 59°
2026-05-04 00:00 53.48044 -2.87941 8496 ft 265 kts 59°
2026-05-04 00:00 53.48954 -2.85307 8245 ft 257 kts 59°
2026-05-04 00:00 53.49834 -2.82758 8012 ft 248 kts 59°
2026-05-04 00:00 53.50684 -2.80290 7793 ft 242 kts 59°
2026-05-04 00:01 53.51524 -2.77849 7538 ft 240 kts 60°
2026-05-04 00:01 53.52101 -2.75260 7296 ft 238 kts 81°
2026-05-04 00:01 53.51948 -2.72506 7110 ft 238 kts 108°
2026-05-04 00:01 53.51047 -2.70184 7057 ft 241 kts 135°
2026-05-04 00:02 53.49604 -2.68717 6908 ft 246 kts 154°
2026-05-04 00:02 53.48046 -2.67596 6628 ft 241 kts 156°
2026-05-04 00:02 53.46494 -2.66526 6400 ft 241 kts 156°
2026-05-04 00:02 53.44939 -2.65478 6191 ft 240 kts 156°
2026-05-04 00:03 53.43390 -2.64450 5983 ft 237 kts 156°
2026-05-04 00:03 53.41887 -2.63461 5779 ft 227 kts 156°
2026-05-04 00:03 53.40443 -2.62517 5588 ft 219 kts 156°
2026-05-04 00:03 53.39040 -2.61603 5407 ft 215 kts 156°
2026-05-04 00:04 53.37651 -2.60699 5229 ft 214 kts 156°
2026-05-04 00:04 53.36268 -2.59802 5052 ft 213 kts 156°
2026-05-04 00:04 53.34886 -2.58906 4870 ft 213 kts 156°
2026-05-04 00:04 53.33506 -2.58014 4695 ft 213 kts 156°
2026-05-04 00:05 53.32125 -2.57123 4516 ft 212 kts 156°
2026-05-04 00:05 53.30788 -2.56260 4344 ft 201 kts 156°
2026-05-04 00:05 53.29495 -2.55426 4174 ft 194 kts 156°
2026-05-04 00:05 53.28233 -2.54612 3996 ft 194 kts 156°
2026-05-04 00:06 53.26974 -2.53800 3832 ft 194 kts 156°
2026-05-04 00:06 53.25879 -2.52556 3668 ft 190 kts 129°
2026-05-04 00:06 53.25353 -2.50617 3494 ft 181 kts 97°
2026-05-04 00:06 53.25536 -2.48561 3364 ft 181 kts 68°
2026-05-04 00:07 53.26153 -2.46764 3063 ft 174 kts 57°
2026-05-04 00:07 53.26821 -2.45224 2791 ft 152 kts 53°
2026-05-04 00:07 53.27435 -2.43906 2543 ft 139 kts 52°
2026-05-04 00:07 53.28032 -2.42659 2338 ft 136 kts 51°
2026-05-04 00:08 53.28619 -2.41433 2150 ft 135 kts 51°
2026-05-04 00:08 53.29212 -2.40221 1963 ft 134 kts 51°
2026-05-04 00:08 53.29802 -2.39004 1785 ft 135 kts 51°
2026-05-04 00:08 53.30391 -2.37789 1606 ft 136 kts 51°
2026-05-04 00:09 53.30981 -2.36571 1433 ft 134 kts 51°
2026-05-04 00:09 53.31564 -2.35367 1261 ft 133 kts 50°
2026-05-04 00:09 53.32147 -2.34164 1087 ft 133 kts 50°
2026-05-04 00:09 53.32725 -2.32971 911 ft 132 kts 51°
2026-05-04 00:10 53.33303 -2.31777 742 ft 131 kts 50°
2026-05-04 00:10 53.33880 -2.30584 570 ft 131 kts 50°
2026-05-04 00:10 53.34455 -2.29396 394 ft 131 kts 50°
2026-05-04 00:10 53.35015 -2.28233 274 ft 118 kts 51°
2026-05-04 00:11 53.35359 -2.27524 272 ft 42 kts 50°
2026-05-04 00:11 53.35455 -2.27341 272 ft 12 kts 45°
2026-05-04 00:11 53.35505 -2.27374 272 ft 9 kts 317°
2026-05-04 00:11 53.35554 -2.27447 272 ft 9 kts 322°
2026-05-04 00:12 53.35608 -2.27518 272 ft 11 kts 321°
2026-05-04 00:12 53.35674 -2.27605 272 ft 13 kts 328°
2026-05-04 00:12 53.35756 -2.27661 272 ft 12 kts 340°
2026-05-04 00:12 53.35823 -2.27758 272 ft 14 kts 304°
2026-05-04 00:13 53.35901 -2.27855 272 ft 16 kts
2026-05-04 00:13 53.35996 -2.27838 272 ft 14 kts
2026-05-04 00:13 53.36089 -2.27897 272 ft 16 kts 315°
2026-05-04 00:13 53.36171 -2.28039 272 ft 18 kts 313°
2026-05-04 00:14 53.36259 -2.28080 272 ft 14 kts 14°
2026-05-04 00:14 53.36353 -2.27999 272 ft 17 kts 43°
2026-05-04 00:14 53.36390 -2.27890 272 ft 11 kts 106°
2026-05-04 00:14 53.36371 -2.27850 272 ft 0 kts 133°
2026-05-04 00:15 53.36363 -2.27834 272 ft 5 kts 133°
2026-05-04 00:15 53.36345 -2.27783 272 ft 3 kts 93°
2026-05-04 00:16 53.36355 -2.27753 272 ft 3 kts 43°
2026-05-04 00:16 53.36361 -2.27743 272 ft 0 kts 43°
2026-05-04 00:16 53.36362 -2.27742 272 ft 1 kts 43°
2026-05-04 00:16 53.36388 -2.27699 272 ft 9 kts 45°
2026-05-04 00:17 53.36406 -2.27668 272 ft 0 kts 45°